Location: La P�russe
(44.1399°N, 6.0819°E)
Time: 15:01:19
(UTC+00:00)

Daily predictions for brighter satellites

Satellite Brightness Start Highest point End
(mag) Time Altitude Azimuth Time Altitude Azimuth Time Altitude Azimuth
Cosmos 1821 Rocket 4.0 17:08:11 10° N 17:14:15 62° E 17:20:20 10° SSE
Unknown 4.3 17:11:04 10° WSW 17:15:07 51° NNW 17:19:10 10° NE
Unknown 4.3 17:12:43 10° WSW 17:16:45 50° NNW 17:20:47 10° NE
Unknown 4.4 17:14:24 10° WSW 17:18:26 49° NNW 17:22:28 10° NE
BREEZE M DEB (TANK) 2.3 17:16:35 10° NW 17:18:39 38° NNE 17:22:24 10° E
Cosmos 2082 Rocket 3.8 17:15:16 10° N 17:18:40 16° NE 17:22:01 10° E
COSMO-SKYMED 1 3.0 17:16:50 10° NNE 17:20:58 41° E 17:25:04 10° S
Cosmos 1703 4.3 17:18:19 10° NNE 17:21:35 24° ENE 17:24:48 10° SE
Unknown 4.4 17:17:47 10° W 17:21:48 47° NNW 17:25:50 10° NE
Nadezhda 3 Rocket 4.0 17:16:25 10° S 17:22:40 77° E 17:29:01 10° N
Starlink (trailer) 4.5 17:19:28 10° W 17:23:28 46° NNW 17:27:28 10° NE
COSMOS 2406 3.7 17:18:23 10° NNW 17:23:50 41° ENE 17:29:13 10° SE
Unknown 4.5 17:21:08 10° W 17:25:07 45° NNW 17:29:07 10° NE
Cosmos 1934 Rocket 4.2 17:19:14 10° N 17:25:23 49° ENE 17:31:31 10° SSE
SWAS 4.5 17:23:24 10° SSW 17:27:37 64° ESE 17:31:52 10° NNE
Cosmos 1953 2.4 17:24:36 10° S 17:28:40 85° W 17:32:45 10° N
Abrixas rocket 3.7 17:26:39 10° S 17:28:56 19° SE 17:31:00 11° E
Cosmos 1825 Rocket 3.6 17:24:49 10° N 17:29:12 86° W 17:33:36 10° S
Cosmos 1953 Rocket 3.5 17:27:23 10° N 17:31:46 69° E 17:36:04 10° SSE
YAOGAN 6 2.9 17:29:31 10° SSE 17:33:01 45° ENE 17:36:31 10° N
Unknown 4.2 17:33:43 10° NW 17:36:24 26° NNE 17:38:29 14° ENE
Cosmos 1844 Rocket 3.0 17:32:24 10° SSW 17:38:02 71° WNW 17:43:43 10° NNE
FengYun 1-2 T 4.2 17:34:19 10° SSE 17:39:56 70° ENE 17:45:31 10° N
Cosmos 1606 Rocket 3.9 17:38:53 10° SSW 17:43:16 72° W 17:47:38 10° N
SKYMED 3 4.5 17:40:39 10° NNE 17:45:01 76° ESE 17:49:21 10° S
Unknown 2.7 17:43:30 10° NW 17:46:06 50° NNE 17:47:39 21° E
Envisat 3.1 17:42:11 10° SSE 17:47:16 82° WSW 17:52:23 10° NNW
Meteor 1-16 Rocket 4.1 17:42:46 10° S 17:48:20 77° E 17:53:46 10° NNE
BREEZE-M DEB (TANK) 3.3 17:44:20 10° SW 17:49:38 42° SSE 17:51:13 20° E
Cosmos 1908 3.5 17:49:35 10° SSE 17:53:19 44° E 17:57:03 10° NNE
Cosmos 1461 4.1 17:53:21 10° N 17:56:41 24° NE 17:58:04 20° ENE
Cosmos 1356 3.3 17:55:13 10° S 17:58:39 78° E 18:02:06 10° NNE
Lacrosse 5 rocket 2.4 17:55:29 10° WNW 17:59:04 42° SW 18:02:50 10° SSE
ASTEX 1 3.5 17:54:25 10° N 17:59:23 84° W 18:04:21 10° S
Cosmos 2278 Rocket 2.5 17:54:06 10° S 17:59:25 44° ESE 18:04:47 10° NE
Cosmos 1939 Rocket 3.3 17:56:07 10° SE 17:59:48 38° ENE 18:03:33 10° N
Cosmos 1812 Rocket 4.4 17:58:37 10° SSE 18:02:20 27° E 18:06:06 10° NNE
Cosmos 1844 4.4 17:58:33 10° SW 18:04:10 57° WNW 18:09:53 10° NNE
ATLAS 5 CENTAUR R/B 3.5 18:01:38 10° W 18:05:21 27° NW 18:09:28 10° NNE
Cosmos 489 Rocket 4.4 18:02:18 10° SSW 18:08:30 80° ESE 18:14:44 10° NNE
SKYMED 2 4.2 18:04:46 10° N 18:09:03 60° WNW 18:13:19 10° SSW
Cosmos 1328 3.9 18:06:19 10° N 18:10:19 80° W 18:14:16 10° S
YAOGAN 1 2.7 18:07:36 10° S 18:11:56 79° WSW 18:16:17 10° NNW
Cosmos 482 Debris 4.4 18:09:25 10° WNW 18:14:17 64° SW 18:15:52 27° SE
Cosmos 1076 Rocket 4.3 18:10:27 10° NNE 18:14:18 29° ENE 18:14:33 29° E
Cosmos 292 Rocket 3.9 18:14:28 10° SSW 18:19:12 74° WNW 18:23:58 10° NNE
CSL-04 Rocket 4.1 18:16:38 10° S 18:22:09 68° WSW 18:27:39 10° NNW
CZ-4 R/B 2.7 18:18:46 10° S 18:22:44 44° W 18:26:47 10° NNW
USA 238 DEB 3.9 18:17:46 10° S 18:24:04 46° ESE 18:28:53 18° NE
USA 238 3.9 18:17:54 10° S 18:24:11 46° ESE 18:28:55 18° NE
Ariane Rocket 2.9 18:24:47 10° SSE 18:29:50 73° ENE 18:34:57 10° N
NOAA 11 4.1 18:24:32 10° SSE 18:29:59 85° ENE 18:35:28 10° NNW
Shenzhou-11 Module 2.2 18:27:20 10° W 18:29:46 57° SW 18:29:46 57° SW
Cosmos 1726 3.6 18:26:42 10° SSW 18:30:09 38° WNW 18:33:36 10° N
Lacrosse 5 2.5 18:26:52 10° NW 18:31:37 39° NNE 18:32:48 34° ENE
Cosmos 1242 Rocket 4.5 18:30:44 10° NNW 18:34:02 32° W 18:37:20 10° SSW
CZ-2D R/B 3.5 18:33:56 10° S 18:37:45 68° W 18:41:37 10° NNW
ARGOS 4.1 18:38:25 28° NE 18:38:25 28° NE 18:42:24 10° N
Cosmos 1833 Rocket 2.6 18:35:58 10° NNW 18:41:36 76° ENE 18:44:18 32° SE
SPOT 3 Rocket 4.0 18:48:34 41° NE 18:48:34 41° NE 18:53:03 10° N
NOSS 3-2 (A) 3.4 18:44:17 10° SSW 18:49:48 55° ESE 18:51:20 44° ENE
HJ-1C 4.0 18:51:33 51° NNW 18:51:33 51° NNW 18:54:12 10° NNW
Cosmos 1459 Rocket 3.9 18:51:08 10° N 18:57:17 61° E 18:58:57 46° SE
Cosmos 2058 4.1 18:55:47 10° N 18:58:09 32° N 18:58:09 32° N
Gbstr 26 Del rocket 4.1 18:55:44 10° WNW 19:02:06 78° NNE 19:04:05 51° ESE
Cosmos 2082 Rocket 2.1 18:57:59 10° NNW 19:03:44 78° ENE 19:04:38 63° SE
Abrixas rocket 4.3 19:01:30 10° WSW 19:02:52 24° WSW 19:02:52 24° WSW
SJ 16-02 3.7 19:01:43 10° N 19:02:24 13° NNE 19:02:24 13° NNE
Resurs 01 Rocket 4.2 19:09:04 10° NNE 19:09:04 10° NNE 19:09:08 10° NNE
H-2A R/B 2.6 19:06:53 45° NNE 19:06:53 45° NNE 19:11:02 10° N
Cosmos 1727 Rocket 4.2 19:01:15 10° SSW 19:07:24 67° W 19:13:33 10° N
NOSS 3-2 (C) 4.3 19:07:21 10° SSW 19:10:26 32° S 19:10:26 32° S
Cosmos 1802 Rocket 3.9 19:10:52 10° N 19:17:20 72° E 19:17:48 69° ESE
Cosmos 2173 Rocket 3.9 19:14:18 10° N 19:20:37 89° W 19:22:02 57° S
In-Cosmos 22 Rocket 4.3 19:25:51 10° NNW 19:30:27 65° NNW 19:30:27 65° NNW
CZ-2C R/B 4.3 19:37:01 37° N 19:37:01 37° N 19:40:31 10° N
ADEOS Rocket 3.3 19:29:00 10° NNE 19:36:47 85° ESE 19:44:00 10° SSW
Cosmos 2100 Rocket 4.4 19:35:21 10° NNW 19:41:24 58° W 19:43:19 41° SSW
Cosmos 2278 Rocket 3.8 19:38:37 10° WSW 19:43:38 32° NW 19:48:41 10° N
ATLAS 3B R/B 4.4 19:44:01 10° SSW 19:45:35 18° SSW 19:45:35 18° SSW
Lacrosse 5 3.9 20:09:50 10° WNW 20:12:00 25° WNW 20:12:00 25° WNW
